Location: Pedholt
(56.0260°N, 10.2097°E)
Time: 06:49:21
(UTC+00:00)

Transit 2A Rocket - Pass Details

Date: 03 August 2021
Orbit: 586 x 917 km, 66.7° (Epoch: 24 September)

Event Time Altitude Azimuth Distance (km) Brightness Sun altitude
Rises 19:19:04 0° 312° (NW) 3,145 10.7 -0.4°
Reaches altitude 10° 19:21:27 10° 319° (NW) 2,274 9.2 -0.7°
Maximum altitude 19:26:28 45° 32° (NNE) 1,091 5.9 -1.3°
Drops below altitude 10° 19:31:56 10° 104° (ESE) 2,476 7.1 -1.9°
Enters shadow 19:34:13 - 110° (ESE) 3,302 7.6 -2.2°
Sets 19:34:37 0° 111° (ESE) 3,453 - -2.2°
